User: anonymous   Login
Location: Dappach
(48.9767°N, 9.6998°E)
Time: 12:24:24
(UTC+00:00)
Language:

Cosmos 1733 Rocket - Orbit

View from above orbital plane
View from above orbital plane
View from above satellite
View from above satellite

Ground track
Ground track

The orbit data is extracted from the following two-line orbital elements,

1 16612U 86018B   24205.90136801  .00001254  00000-0  14219-3 0  9992
2 16612  82.5158  21.8859 0016096 225.4363 134.5540 14.85516396955141
Epoch (UTC): 23 July 2024 21:37:58
Eccentricity: 0.0016096
inclination: 82.5158°
perigee height: 601 km
apogee height: 623 km
right ascension of ascending node: 21.8859°
argument of perigee: 225.4363°
revolutions per day: 14.85516396
mean anomaly at epoch: 134.5540°
orbit number at epoch: 95514

The dashed part of the orbit path shows where the satellite is in the earth's shadow,  

DLR